This is the latest recevied weather packets stored in our database for station/object PU5FJO-13. If no packets are shown the sender has not sent any weather packets the latest 10 day(s).
| Time | Temp. | Humidity | Pressure | Rain* | Wind** | Luminosity | Snow |
|---|---|---|---|---|---|---|---|
| 1777959373 | 20° C | 82% | 1018.1 hPa | - | - | - | - |
| 1777958773 | 20° C | 84% | 1018.3 hPa | - | - | - | - |
| 1777958173 | 20° C | 83% | 1018.3 hPa | - | - | - | - |
| 1777957573 | 20° C | 83% | 1018.5 hPa | - | - | - | - |
| 1777956973 | 20° C | 83% | 1018.6 hPa | - | - | - | - |
| 1777956373 | 20.56° C | 81% | 1018.7 hPa | - | - | - | - |
| 1777955773 | 20.56° C | 80% | 1018.9 hPa | - | - | - | - |
| 1777955173 | 20° C | 83% | 1018.7 hPa | - | - | - | - |
| 1777954573 | 20° C | 83% | 1018.5 hPa | - | - | - | - |
| 1777953973 | 20° C | 83% | 1018.5 hPa | - | - | - | - |
| 1777953373 | 20° C | 84% | 1018.5 hPa | - | - | - | - |
| 1777952773 | 20° C | 84% | 1018.5 hPa | - | - | - | - |
| 1777952173 | 20° C | 84% | 1018.6 hPa | - | - | - | - |
| 1777951573 | 20° C | 84% | 1018.5 hPa | - | - | - | - |
| 1777950973 | 20° C | 85% | 1018.6 hPa | - | - | - | - |
| 1777950373 | 20° C | 83% | 1018.5 hPa | - | - | - | - |
| 1777949773 | 20° C | 83% | 1018.6 hPa | - | - | - | - |
| 1777949173 | 20° C | 82% | 1018.6 hPa | - | - | - | - |
| 1777948573 | 20° C | 81% | 1018.9 hPa | - | - | - | - |
| 1777947973 | 20° C | 80% | 1019.1 hPa | - | - | - | - |
| 1777947373 | 20° C | 80% | 1018.8 hPa | - | - | - | - |
| 1777946773 | 20° C | 81% | 1018.4 hPa | - | - | - | - |
| 1777946173 | 20° C | 81% | 1018.3 hPa | - | - | - | - |
| 1777945573 | 20.56° C | 80% | 1018.6 hPa | - | - | - | - |
| 1777944973 | 21.11° C | 74% | 1018.8 hPa | - | - | - | - |
* Rain since midnight (hover to see other rain measurements)
** Current wind speed in m/s (hover to see current wind gust speed)